K7TUS-6 Weather Reports


Display with metric or nautical units.
time (UTC)temp
F
wind
direction
speed
MPH
gust
MPH
rain 1hr
in
rain 24hr
in
rain mn
in
humidity
%
barometer
mb
20220521153008 45 179 20.0 22.0 0.00 0.00 0.00 36 985.1
20220521152507 45 200 19.0 21.0 0.00 0.00 0.00 35 982.9
20220521152006 45 196 17.0 19.0 0.00 0.00 0.00 38 983.5
20220521151505 44 197 19.0 21.0 0.00 0.00 0.00 37 982.5
20220521151004 45 196 20.0 22.0 0.00 0.00 0.00 38 981.3
20220521150504 44 198 21.0 25.0 0.00 0.00 0.00 37 979.3
20220521150003 44 203 22.0 23.0 0.00 0.00 0.00 39 978.4
20220521145508 44 203 23.0 27.0 0.00 0.00 0.00 38 982.8
20220521145008 44 190 22.0 26.0 0.00 0.00 0.00 40 987.2
20220521144507 43 195 23.0 25.0 0.00 0.00 0.00 41 986.9
20220521144006 43 201 28.0 30.0 0.00 0.00 0.00 39 985.4
20220521143506 44 197 24.0 26.0 0.00 0.00 0.00 41 986.7
20220521143005 44 200 24.0 27.0 0.00 0.00 0.00 40 986.2
20220521142504 43 186 24.0 28.0 0.00 0.00 0.00 40 983.7
20220521142003 43 199 23.0 25.0 0.00 0.00 0.00 41 986.1
20220521141502 43 210 24.0 27.0 0.00 0.00 0.00 41 984.3
20220521141008 43 198 23.0 25.0 0.00 0.00 0.00 41 983.3
20220521140507 43 199 25.0 26.0 0.00 0.00 0.00 41 982.6
20220521140006 43 192 23.0 26.0 0.00 0.00 0.00 42 984.0
20220521135506 43 196 25.0 29.0 0.00 0.00 0.00 41 984.3
20220521135005 43 210 24.0 26.0 0.00 0.00 0.00 41 979.0
20220521134505 43 206 24.0 25.0 0.00 0.00 0.00 43 982.8
20220521134004 43 203 24.0 26.0 0.00 0.00 0.00 42 981.7
20220521133503 43 203 25.0 27.0 0.00 0.00 0.00 42 985.7
20220521133008 42 210 23.0 24.0 0.00 0.00 0.00 45 983.6
20220521132507 43 208 24.0 24.0 0.00 0.00 0.00 44 984.3
20220521132006 42 210 24.0 26.0 0.00 0.00 0.00 44 985.1
20220521131506 42 212 23.0 26.0 0.00 0.00 0.00 44 985.1
20220521131005 42 208 24.0 26.0 0.00 0.00 0.00 45 985.4
20220521130504 42 209 25.0 29.0 0.00 0.00 0.00 44 985.0
20220521130003 43 201 24.0 26.0 0.00 0.00 0.00 44 983.8
20220521125502 43 203 27.0 31.0 0.00 0.00 0.00 44 981.7
20220521125007 42 212 26.0 28.0 0.00 0.00 0.00 45 980.0
20220521124506 42 208 25.0 27.0 0.00 0.00 0.00 45 979.3
20220521124006 42 212 26.0 28.0 0.00 0.00 0.00 46 982.7
20220521123505 42 212 24.0 28.0 0.00 0.00 0.00 46 985.5
20220521123004 42 211 26.0 29.0 0.00 0.00 0.00 46 983.3
20220521122503 42 207 25.0 27.0 0.00 0.00 0.00 46 982.0
20220521122008 42 211 23.0 26.0 0.00 0.00 0.00 46 980.9
20220521121507 42 215 20.0 23.0 0.00 0.00 0.00 47 983.8
20220521121007 42 217 23.0 26.0 0.00 0.00 0.00 46 983.7
20220521120506 42 212 24.0 27.0 0.00 0.00 0.00 46 984.9
20220521120006 42 220 26.0 29.0 0.00 0.00 0.00 46 985.0
20220521115505 42 218 28.0 30.0 0.00 0.00 0.00 46 985.4
20220521115004 42 213 27.0 30.0 0.00 0.00 0.00 47 985.1
20220521114503 42 219 22.0 25.0 0.00 0.00 0.00 46 985.8
20220521114008 42 215 22.0 24.0 0.00 0.00 0.00 48 983.8
20220521113507 42 213 27.0 29.0 0.00 0.00 0.00 48 985.0
20220521113007 42 212 23.0 26.0 0.00 0.00 0.00 50 983.7
20220521112506 42 214 27.0 30.0 0.00 0.00 0.00 49 981.0
20220521112023 42 210 28.0 32.0 0.00 0.00 0.00 50 982.5
20220521111504 42 206 29.0 33.0 0.00 0.00 0.00 50 982.1
20220521111004 42 208 32.0 36.0 0.00 0.00 0.00 50 976.9
20220521110503 42 209 26.0 28.0 0.00 0.00 0.00 51 979.2
20220521110002 41 208 31.0 33.0 0.00 0.00 0.00 54 978.1
20220521105508 41 205 31.0 33.0 0.00 0.00 0.00 53 978.7
20220521105007 41 207 30.0 32.0 0.00 0.00 0.00 53 982.0
20220521104507 41 211 33.0 35.0 0.00 0.00 0.00 53 984.9
20220521104006 41 209 28.0 32.0 0.00 0.00 0.00 53 983.1
20220521103505 42 207 31.0 32.0 0.00 0.00 0.00 52 983.1
20220521103010 42 206 31.0 33.0 0.00 0.00 0.00 51 983.4
20220521102509 41 207 32.0 34.0 0.00 0.00 0.00 52 981.8
20220521102009 42 211 33.0 37.0 0.00 0.00 0.00 50 981.7
20220521101508 42 213 33.0 37.0 0.00 0.00 0.00 50 980.3
20220521101007 42 210 31.0 35.0 0.00 0.00 0.00 49 979.5
20220521100507 42 208 34.0 36.0 0.00 0.00 0.00 49 983.0
20220521100006 42 205 33.0 36.0 0.00 0.00 0.00 49 978.9
20220521095505 42 208 34.0 38.0 0.00 0.00 0.00 48 979.3
20220521095010 42 206 31.0 33.0 0.00 0.00 0.00 49 981.9
20220521094510 42 204 32.0 35.0 0.00 0.00 0.00 48 981.8
20220521094009 42 210 28.0 31.0 0.00 0.00 0.00 49 981.9
20220521093508 42 210 31.0 38.0 0.00 0.00 0.00 49 979.8
20220521093008 42 209 33.0 35.0 0.00 0.00 0.00 50 983.3
20220521092507 42 214 33.0 37.0 0.00 0.00 0.00 50 981.5
20220521092006 42 210 37.0 39.0 0.00 0.00 0.00 51 981.2
20220521091505 42 208 32.0 35.0 0.00 0.00 0.00 51 981.2
20220521091010 42 209 31.0 35.0 0.00 0.00 0.00 51 980.7
20220521090509 42 206 32.0 35.0 0.00 0.00 0.00 52 981.1
20220521090009 42 206 33.0 37.0 0.00 0.00 0.00 52 980.0
20220521085508 42 207 36.0 38.0 0.00 0.00 0.00 53 979.2
20220521085007 42 205 30.0 32.0 0.00 0.00 0.00 52 981.4
20220521084506 42 208 31.0 34.0 0.00 0.00 0.00 52 981.4
20220521084006 42 203 34.0 35.0 0.00 0.00 0.00 51 980.8
20220521083505 43 206 34.0 38.0 0.00 0.00 0.00 50 979.5
20220521083011 43 204 31.0 34.0 0.00 0.00 0.00 49 979.2
20220521082510 43 214 32.0 34.0 0.00 0.00 0.00 50 981.5
20220521082009 43 208 32.0 34.0 0.00 0.00 0.00 51 981.5
20220521081508 43 208 31.0 34.0 0.00 0.00 0.00 50 984.1
20220521081007 43 208 36.0 38.0 0.00 0.00 0.00 51 982.1
20220521080506 43 208 32.0 35.0 0.00 0.00 0.00 50 983.1
20220521080006 44 210 33.0 36.0 0.00 0.00 0.00 51 983.1
20220521075505 44 201 31.0 33.0 0.00 0.00 0.00 49 983.7
20220521074507 44 208 32.0 36.0 0.00 0.00 0.00 49 981.1
20220521073508 44 212 36.0 40.0 0.00 0.00 0.00 46 984.1
20220521073008 44 205 31.0 34.0 0.00 0.00 0.00 48 981.6
20220521072509 44 211 33.0 37.0 0.00 0.00 0.00 46 978.8
20220521072007 44 205 36.0 40.0 0.00 0.00 0.00 46 982.9
20220521071507 44 207 41.0 46.0 0.00 0.00 0.00 47 980.8
20220521071006 45 206 37.0 40.0 0.00 0.00 0.00 47 981.8
20220521070506 44 206 41.0 44.0 0.00 0.00 0.00 48 981.9
20220521070005 45 208 38.0 45.0 0.00 0.00 0.00 49 984.3
20220521065511 45 204 39.0 42.0 0.00 0.00 0.00 50 985.1
20220521065010 45 205 39.0 42.0 0.00 0.00 0.00 49 980.8
20220521064509 45 207 38.0 40.0 0.00 0.00 0.00 49 983.9
20220521064009 45 204 39.0 43.0 0.00 0.00 0.00 49 985.3
20220521063508 46 202 43.0 47.0 0.00 0.00 0.00 48 982.0
20220521063008 46 210 38.0 44.0 0.00 0.00 0.00 48 981.2
20220521062507 46 204 37.0 40.0 0.00 0.00 0.00 48 981.2
20220521062006 46 202 40.0 45.0 0.00 0.00 0.00 47 981.7
20220521061505 46 200 39.0 42.0 0.00 0.00 0.00 47 983.7
20220521061004 46 204 38.0 41.0 0.00 0.00 0.00 47 980.9
20220521060510 46 205 38.0 41.0 0.00 0.00 0.00 47 983.7
20220521060009 46 200 38.0 40.0 0.00 0.00 0.00 46 983.1
20220521055508 46 204 36.0 40.0 0.00 0.00 0.00 46 984.6
20220521054507 46 201 41.0 45.0 0.00 0.00 0.00 46 982.8
20220521054006 47 202 42.0 46.0 0.00 0.00 0.00 46 983.2
20220521053506 47 198 45.0 50.0 0.00 0.00 0.00 45 983.7
20220521053005 47 202 43.0 48.0 0.00 0.00 0.00 45 982.6
20220521052505 47 203 43.0 47.0 0.00 0.00 0.00 45 983.7
20220521052004 47 202 43.0 47.0 0.00 0.00 0.00 45 980.3
20220521051510 47 201 43.0 47.0 0.00 0.00 0.00 45 976.9
20220521051009 47 193 42.0 49.0 0.00 0.00 0.00 46 974.9
20220521050508 47 202 44.0 49.0 0.00 0.00 0.00 46 981.9
20220521050008 47 201 37.0 43.0 0.00 0.00 0.00 45 983.1
20220521045507 48 203 43.0 46.0 0.00 0.00 0.00 45 981.2
20220521045006 48 199 42.0 43.0 0.00 0.00 0.00 45 981.3
20220521044506 48 205 48.0 48.0 0.00 0.00 0.00 46 982.8
20220521043010 48 199 41.0 45.0 0.00 0.00 0.00 46 980.5
20220521042510 49 204 42.0 47.0 0.00 0.00 0.00 46 980.5
20220521042009 49 203 39.0 42.0 0.00 0.00 0.00 46 979.2
20220521041508 49 208 37.0 45.0 0.00 0.00 0.00 46 979.8
20220521041007 49 207 42.0 45.0 0.00 0.00 0.00 46 979.3
20220521040506 49 204 42.0 50.0 0.00 0.00 0.00 48 978.1
20220521040006 49 205 45.0 49.0 0.00 0.00 0.00 48 981.4
20220521035505 49 198 39.0 42.0 0.00 0.00 0.00 48 978.6
20220521035010 49 209 43.0 49.0 0.00 0.00 0.00 48 980.0
20220521034509 49 198 42.0 45.0 0.00 0.00 0.00 48 975.9
20220521034009 49 203 40.0 44.0 0.00 0.00 0.00 49 978.0
20220521033508 50 208 38.0 45.0 0.00 0.00 0.00 48 980.1
20220521033007 50 197 46.0 54.0 0.00 0.00 0.00 47 978.0
20220521032507 50 207 37.0 41.0 0.00 0.00 0.00 48 979.6
20220521032006 50 205 38.0 42.0 0.00 0.00 0.00 48 980.0
20220521031506 50 204 40.0 43.0 0.00 0.00 0.00 47 977.7
20220521031005 50 204 34.0 39.0 0.00 0.00 0.00 48 978.6
20220521030510 50 211 36.0 43.0 0.00 0.00 0.00 48 978.0
20220521030009 51 203 37.0 40.0 0.00 0.00 0.00 46 978.5
20220521025508 51 196 40.0 43.0 0.00 0.00 0.00 47 981.3
20220521025008 51 204 37.0 40.0 0.00 0.00 0.00 46 983.2
20220521024507 51 196 38.0 41.0 0.00 0.00 0.00 46 984.2
20220521024007 51 203 43.0 48.0 0.00 0.00 0.00 44 981.3
20220521023506 51 205 46.0 53.0 0.00 0.00 0.00 42 979.5
20220521023006 51 200 36.0 41.0 0.00 0.00 0.00 43 981.1
20220521022505 52 210 40.0 45.0 0.00 0.00 0.00 40 980.9
20220521022004 52 205 39.0 44.0 0.00 0.00 0.00 41 982.2
20220521021533 52 201 38.0 41.0 0.00 0.00 0.00 40 983.3
20220521021008 52 199 40.0 46.0 0.00 0.00 0.00 39 983.9
20220521020508 52 197 38.0 43.0 0.00 0.00 0.00 39 983.0
20220521020007 53 203 37.0 40.0 0.00 0.00 0.00 38 985.0
20220521015507 53 203 36.0 43.0 0.00 0.00 0.00 36 982.0
20220521015006 53 206 39.0 43.0 0.00 0.00 0.00 35 982.5
20220521014506 53 182 36.0 42.0 0.00 0.00 0.00 33 979.6
20220521014005 53 199 40.0 47.0 0.00 0.00 0.00 32 983.1
20220521013505 53 202 43.0 48.0 0.00 0.00 0.00 32 981.4
20220521013010 53 197 42.0 46.0 0.00 0.00 0.00 31 982.3
20220521012509 54 200 39.0 45.0 0.00 0.00 0.00 31 983.7
20220521012009 54 200 44.0 47.0 0.00 0.00 0.00 30 981.6
20220521011508 54 199 43.0 51.0 0.00 0.00 0.00 29 982.6
20220521011007 54 203 42.0 48.0 0.00 0.00 0.00 29 982.0
20220521010507 55 191 38.0 43.0 0.00 0.00 0.00 29 981.4
20220521010006 55 200 36.0 39.0 0.00 0.00 0.00 29 982.1
20220521005505 55 200 36.0 41.0 0.00 0.00 0.00 29 981.9
20220521005005 55 199 41.0 46.0 0.00 0.00 0.00 28 982.1
20220521004504 55 205 41.0 45.0 0.00 0.00 0.00 28 982.5
20220521004009 55 196 40.0 47.0 0.00 0.00 0.00 27 979.7
20220521003509 55 200 41.0 45.0 0.00 0.00 0.00 27 979.9
20220521003009 55 192 38.0 41.0 0.00 0.00 0.00 27 977.2
20220521002508 55 209 39.0 43.0 0.00 0.00 0.00 27 978.1
20220521002008 55 197 37.0 41.0 0.00 0.00 0.00 27 979.3
20220521001507 56 193 35.0 43.0 0.00 0.00 0.00 26 976.3
20220521001007 56 202 33.0 38.0 0.00 0.00 0.00 26 978.6
20220521000506 56 194 35.0 38.0 0.00 0.00 0.00 26 980.0
20220521000005 56 206 39.0 44.0 0.00 0.00 0.00 26 982.6
20220520235505 56 199 36.0 42.0 0.00 0.00 0.00 26 982.4
20220520235010 56 206 33.0 37.0 0.00 0.00 0.00 26 983.4
20220520234509 55 205 43.0 46.0 0.00 0.00 0.00 25 983.6
20220520234009 56 199 39.0 43.0 0.00 0.00 0.00 25 983.7
20220520233508 56 191 39.0 43.0 0.00 0.00 0.00 24 984.3
20220520233007 56 197 36.0 40.0 0.00 0.00 0.00 24 982.6
20220520232507 56 206 38.0 45.0 0.00 0.00 0.00 23 984.7
20220520232006 56 208 35.0 40.0 0.00 0.00 0.00 23 982.6
20220520231505 56 199 36.0 42.0 0.00 0.00 0.00 24 983.9
20220520231005 56 188 39.0 43.0 0.00 0.00 0.00 23 982.5
20220520230504 57 202 32.0 35.0 0.00 0.00 0.00 23 981.3
20220520230009 56 207 39.0 43.0 0.00 0.00 0.00 24 981.5
20220520225508 56 200 42.0 48.0 0.00 0.00 0.00 24 980.9
20220520225008 56 203 43.0 52.0 0.00 0.00 0.00 26 984.7
20220520224507 55 194 49.0 52.0 0.00 0.00 0.00 25 982.6
20220520224007 55 200 43.0 45.0 0.00 0.00 0.00 25 982.2
20220520223506 55 197 41.0 44.0 0.00 0.00 0.00 25 981.1
20220520223005 56 194 38.0 48.0 0.00 0.00 0.00 25 981.6
20220520222505 56 200 38.0 42.0 0.00 0.00 0.00 25 982.6
20220520222004 56 195 40.0 43.0 0.00 0.00 0.00 24 981.4
20220520221509 56 197 41.0 47.0 0.00 0.00 0.00 25 979.9
20220520221009 55 202 35.0 43.0 0.00 0.00 0.00 24 983.6
20220520220508 55 192 42.0 47.0 0.00 0.00 0.00 24 985.3
20220520220008 55 206 39.0 44.0 0.00 0.00 0.00 26 983.8
20220520215507 56 197 41.0 43.0 0.00 0.00 0.00 25 981.9
20220520215007 56 191 36.0 47.0 0.00 0.00 0.00 26 984.3
20220520214506 56 195 34.0 37.0 0.00 0.00 0.00 25 977.1
20220520214006 55 187 39.0 44.0 0.00 0.00 0.00 25 978.5
20220520213505 56 199 38.0 44.0 0.00 0.00 0.00 24 976.9
20220520213005 55 194 37.0 40.0 0.00 0.00 0.00 24 977.6
20220520212009 56 194 35.0 39.0 0.00 0.00 0.00 23 981.2
20220520211508 55 211 33.0 40.0 0.00 0.00 0.00 25 985.1
20220520211007 55 206 34.0 38.0 0.00 0.00 0.00 24 983.3
20220520210506 55 201 36.0 41.0 0.00 0.00 0.00 24 982.1
20220520210006 56 191 33.0 40.0 0.00 0.00 0.00 24 981.8
20220520205506 56 189 29.0 35.0 0.00 0.00 0.00 25 981.9
20220520205005 56 185 32.0 38.0 0.00 0.00 0.00 24 981.7
20220520204505 55 197 31.0 34.0 0.00 0.00 0.00 25 981.2
20220520204010 54 207 38.0 41.0 0.00 0.00 0.00 25 980.5
20220520203509 55 194 31.0 39.0 0.00 0.00 0.00 25 979.9
20220520203008 55 193 36.0 37.0 0.00 0.00 0.00 24 979.6
20220520202508 55 192 33.0 38.0 0.00 0.00 0.00 25 981.6
20220520202007 55 187 32.0 33.0 0.00 0.00 0.00 24 977.6
20220520201506 54 191 33.0 38.0 0.00 0.00 0.00 23 981.2
20220520201006 55 199 32.0 35.0 0.00 0.00 0.00 24 980.5
20220520200505 55 202 34.0 37.0 0.00 0.00 0.00 24 982.1
20220520200004 55 195 29.0 33.0 0.00 0.00 0.00 25 979.6
20220520195509 55 193 30.0 34.0 0.00 0.00 0.00 26 983.0
20220520195009 55 193 31.0 37.0 0.00 0.00 0.00 26 983.0
20220520194508 54 195 31.0 35.0 0.00 0.00 0.00 26 984.6
20220520194007 53 185 35.0 38.0 0.00 0.00 0.00 27 984.4
20220520193507 52 205 33.0 36.0 0.00 0.00 0.00 28 984.5
20220520193006 53 190 35.0 40.0 0.00 0.00 0.00 28 980.8
20220520192506 53 188 30.0 33.0 0.00 0.00 0.00 28 983.5
20220520192005 53 196 32.0 39.0 0.00 0.00 0.00 29 980.2
20220520191505 53 195 31.0 38.0 0.00 0.00 0.00 30 980.6
20220520191010 53 195 33.0 37.0 0.00 0.00 0.00 29 981.1
20220520190509 52 186 33.0 38.0 0.00 0.00 0.00 29 978.6
20220520190008 53 183 28.0 32.0 0.00 0.00 0.00 30 979.8
20220520185507 52 201 34.0 38.0 0.00 0.00 0.00 28 979.9
20220520185007 51 194 31.0 35.0 0.00 0.00 0.00 28 982.8
20220520184506 52 195 28.0 31.0 0.00 0.00 0.00 28 982.5
20220520184005 51 195 31.0 34.0 0.00 0.00 0.00 28 977.7
20220520183505 52 203 26.0 29.0 0.00 0.00 0.00 28 982.3
20220520183010 51 195 27.0 30.0 0.00 0.00 0.00 29 984.7
20220520182509 50 199 28.0 29.0 0.00 0.00 0.00 28 982.6
20220520182008 51 196 28.0 32.0 0.00 0.00 0.00 27 981.6
20220520181508 51 212 21.0 26.0 0.00 0.00 0.00 25 984.3
20220520181007 51 202 20.0 24.0 0.00 0.00 0.00 25 983.9
20220520180506 51 200 24.0 28.0 0.00 0.00 0.00 24 982.2
20220520180005 51 203 18.0 23.0 0.00 0.00 0.00 25 984.0
20220520175505 52 188 17.0 21.0 0.00 0.00 0.00 25 982.3
20220520175004 51 204 16.0 21.0 0.00 0.00 0.00 27 980.3
20220520174509 51 204 18.0 24.0 0.00 0.00 0.00 27 981.9
20220520174008 51 201 21.0 23.0 0.00 0.00 0.00 26 983.2
20220520173508 51 211 18.0 21.0 0.00 0.00 0.00 26 982.1
20220520173007 51 190 19.0 22.0 0.00 0.00 0.00 25 984.3
20220520172506 51 192 20.0 22.0 0.00 0.00 0.00 27 981.5
20220520172006 51 206 21.0 24.0 0.00 0.00 0.00 29 981.6
20220520171505 51 213 21.0 25.0 0.00 0.00 0.00 30 983.7
20220520171004 51 208 22.0 24.0 0.00 0.00 0.00 29 980.6
20220520170509 52 199 21.0 23.0 0.00 0.00 0.00 29 982.7
20220520170008 51 192 20.0 22.0 0.00 0.00 0.00 27 981.1
20220520165508 51 198 21.0 25.0 0.00 0.00 0.00 27 981.6
20220520165007 51 196 18.0 23.0 0.00 0.00 0.00 28 981.9
20220520164506 51 213 21.0 25.0 0.00 0.00 0.00 29 982.6
20220520164006 50 202 22.0 25.0 0.00 0.00 0.00 26 983.4
20220520163505 51 197 18.0 21.0 0.00 0.00 0.00 28 980.1
20220520163004 51 196 18.0 21.0 0.00 0.00 0.00 29 982.7
20220520162509 51 209 20.0 22.0 0.00 0.00 0.00 31 981.6
20220520162008 50 206 24.0 27.0 0.00 0.00 0.00 26 981.8
20220520161508 51 198 23.0 27.0 0.00 0.00 0.00 29 983.7
20220520161013 50 193 22.0 26.0 0.00 0.00 0.00 27 982.6
20220520160506 50 197 23.0 27.0 0.00 0.00 0.00 27 982.0
20220520160005 50 206 21.0 22.0 0.00 0.00 0.00 29 980.1
20220520155505 49 208 30.0 32.0 0.00 0.00 0.00 28 974.7
20220520155004 51 199 27.0 35.0 0.00 0.00 0.00 28 977.1
20220520154509 50 207 28.0 31.0 0.00 0.00 0.00 27 980.3